Location: Unspecified
(34.4950°S, 58.5160°W)
Time: 04:28:18
(UTC+00:00)

ERS-2 - Pass Details

Date: 04 December 2021
Orbit: 489 x 493 km, 98.5° (Epoch: 23 January)

Event Time Altitude Azimuth Distance (km) Brightness Sun altitude
Exits shadow 23:47:06 11° 80° (E) 1,607 4.1 -10.0°
Maximum altitude 23:48:55 15° 112° (ESE) 1,396 4.1 -10.3°
Drops below altitude 10° 23:51:08 10° 149° (SSE) 1,711 4.9 -10.6°
Sets 23:53:53 0° 171° (S) 2,606 6.2 -11.1°
